Wind_Speed
18 18 20 25 26 25 24 27 24 30 28 28 33 28 28 29 31 42 43 41 45 47 48 47 48 52 48 41 44 48 52 55 57 55 47 39 32 31 28 28 30 30 31 30
25 17 17 30 31 17 9 20 28 29 34 33 29 29 25 30 45 48 45 48 50 48 54 50 47 41 39 45 49 53 54 54 51 45 38 35 34 31 32 32 28 30 35 36
16 20 20 21 3 13 25 22 24 32 31 29 30 33 31 40 51 51 48 50 44 52 48 38 40 42 43 46 52 54 53 48 40 39 34 34 31 31 34 36 36 36 37 37
13 18 1 17 19 29 24 19 27 27 31 36 36 35 38 47 50 51 48 50 51 49 38 35 41 45 47 49 51 50 44 40 38 33 31 34 38 37 35 34 35 36 37 37
10 10 20 32 20 19 28 32 28 28 30 33 33 43 47 52 50 39 50 49 31 32 35 39 42 46 49 50 49 45 38 36 34 36 36 33 31 32 32 32 34 35 36 36
17 8 5 21 25 22 22 31 16 20 24 46 42 43 47 49 56 45 52 37 33 40 43 42 44 45 45 45 43 38 39 38 35 33 33 33 32 31 33 36 37 37 35 36
26 20 22 27 15 16 17 21 34 45 42 37 38 42 46 43 52 49 35 40 43 43 39 40 43 43 42 41 41 38 35 35 30 31 34 33 32 35 37 38 36 36 36 35
16 9 11 5 20 31 38 45 46 48 43 41 43 41 45 43 44 35 40 43 39 39 42 43 44 42 38 38 34 36 38 29 32 35 33 33 35 38 38 37 36 36 34 33
21 23 40 44 45 31 38 41 41 44 43 36 45 41 34 27 31 36 40 44 40 40 42 43 44 40 37 33 36 31 27 31 34 32 33 36 39 39 36 35 34 34 35 35
34 38 34 30 30 31 36 37 42 40 33 44 42 35 30 29 33 38 42 39 39 41 42 42 40 36 33 29 27 27 29 32 33 33 35 38 38 35 34 33 34 36 36 35
36 32 35 32 33 35 38 39 35 43 34 34 30 33 33 34 35 38 38 37 40 42 42 40 38 36 32 27 27 27 30 31 32 35 37 37 33 31 32 34 36 38 37 34
39 30 36 34 35 34 37 43 44 33 32 34 30 33 33 36 42 39 37 38 43 45 42 39 38 35 31 28 26 28 28 30 33 35 35 33 29 29 31 33 36 35 33 32
32 36 31 31 36 35 35 31 32 33 31 34 36 34 38 43 41 39 40 42 45 47 41 38 38 33 29 25 25 26 29 32 33 33 30 28 28 31 32 33 33 32 31 28
27 29 31 30 28 29 31 29 32 34 35 37 40 44 45 41 42 42 44 45 45 43 37 35 32 30 23 24 25 27 29 31 31 28 27 26 29 30 33 35 31 29 27 28
33 29 28 31 29 28 32 36 38 38 39 45 49 46 43 43 45 46 44 44 43 37 34 31 28 22 22 24 26 28 28 27 25 24 24 27 29 30 34 33 31 30 26 24
30 31 32 31 29 34 36 39 42 42 49 52 53 52 49 48 48 46 44 42 40 34 30 25 18 19 21 23 24 23 22 23 22 22 25 27 27 30 32 30 30 29 26 25
30 33 30 33 34 34 36 39 44 50 55 55 50 49 51 50 49 44 41 39 34 29 23 15 16 19 20 20 19 20 21 21 22 23 25 25 26 30 30 29 29 27 26 26
32 31 33 34 36 38 42 46 50 50 46 46 48 49 48 46 46 42 39 36 29 23 15 14 16 18 19 17 18 19 20 22 23 23 22 22 25 29 29 28 27 27 26 25
28 31 32 37 43 47 49 50 46 45 44 46 46 44 42 42 40 36 35 32 23 16 12 15 17 18 17 18 18 19 19 21 22 21 21 21 24 27 28 27 26 26 26 25
31 35 41 48 50 51 47 42 43 43 43 43 41 40 39 37 34 32 33 26 19 11 14 16 16 17 17 17 17 18 19 21 22 21 20 20 22 25 27 27 25 24 24 24
41 47 49 50 48 44 40 40 42 42 40 39 39 38 37 33 31 33 29 22 15 12 15 15 16 16 17 17 16 17 19 21 21 21 20 20 22 24 25 25 24 23 22 21
48 49 45 42 39 39 39 41 40 41 42 38 35 36 34 30 30 28 21 20 12 13 15 14 15 16 16 16 15 15 17 20 19 19 19 19 21 22 23 23 23 22 21 20
42 40 38 38 39 39 39 40 41 42 40 36 34 32 29 26 27 21 19 17 13 14 15 15 15 16 16 15 15 16 17 18 18 18 18 19 21 22 22 22 21 20 19 18
37 37 36 35 36 37 38 37 34 30 32 31 31 28 25 25 21 16 17 13 14 15 16 16 16 17 16 15 15 16 16 17 18 19 19 20 21 22 23 21 20 19 18 17
34 33 34 34 35 36 37 37 36 34 31 29 27 24 22 20 14 12 14 13 14 15 17 18 17 17 17 15 14 14 15 16 18 19 20 22 23 23 23 22 20 18 17 16
31 31 33 35 34 34 35 36 36 33 29 27 26 23 18 13 10 12 14 14 16 17 18 18 17 16 15 14 13 14 16 18 19 20 21 21 22 23 23 23 21 19 18 16
28 30 33 33 31 32 35 36 34 31 26 26 22 15 13 13 12 13 15 14 16 17 17 17 15 14 14 14 14 15 17 18 19 20 20 21 22 23 23 23 22 19 17 17
Wind_Direction
296 299 300 300 299 300 288 291 271 304 297 306 317 309 316 318 314 316 318 321 319 317 318 317 317 309 299 302 327 321 318 317 314 315 315 313 314 310 307 302 298 293 292 290
308 316 311 303 305 299 308 313 305 305 301 313 303 303 307 305 322 326 319 314 316 317 325 318 314 299 322 328 323 317 314 314 314 316 316 314 310 305 300 303 299 295 297 304
294 308 308 308 309 312 314 310 311 302 310 310 303 294 295 308 322 319 319 319 315 319 315 311 312 322 331 322 317 315 315 315 316 317 316 308 302 299 298 300 302 308 311 307
273 291 181 304 295 306 300 297 309 304 305 303 294 289 300 309 315 317 318 316 311 314 312 337 332 329 321 317 315 314 314 321 316 312 307 304 307 313 317 317 312 308 308 308
261 254 277 293 318 313 307 303 314 306 297 301 287 294 299 303 313 315 316 310 307 327 336 333 324 319 318 316 316 316 316 323 317 318 316 316 317 317 318 318 316 313 310 308
267 274 265 294 295 303 305 298 295 284 290 309 310 311 310 313 308 307 315 302 343 346 341 329 322 319 318 315 316 312 313 320 322 320 319 322 323 322 323 320 317 314 312 309
277 271 279 308 299 313 301 302 300 305 310 309 311 306 308 308 316 320 315 340 342 338 327 322 322 322 319 317 315 310 312 320 321 322 323 324 325 324 321 318 316 314 312 311
277 258 289 274 309 319 313 305 309 308 304 306 301 305 321 313 310 317 342 339 335 329 327 325 324 322 319 314 299 303 320 322 324 324 324 324 323 322 321 320 318 317 316 314
267 270 295 289 282 315 305 299 303 313 308 305 320 319 311 323 338 338 334 333 326 322 322 323 322 320 319 307 301 311 318 321 322 324 324 323 323 323 323 322 322 322 319 317
286 297 301 304 309 299 299 306 313 315 312 320 321 306 323 331 336 338 337 327 321 318 319 320 319 319 321 319 315 316 320 322 323 323 323 324 325 326 326 326 326 323 322 322
299 308 305 292 302 299 303 305 301 312 319 319 316 322 322 327 334 335 330 321 318 317 318 320 319 319 323 320 316 317 321 321 322 323 325 326 328 329 330 330 329 327 326 327
296 305 300 306 305 306 306 303 313 316 314 315 316 321 326 328 333 329 320 321 321 318 318 321 318 316 319 318 315 318 321 321 321 323 326 326 330 332 333 333 331 328 329 328
296 296 299 300 304 304 306 313 312 313 312 311 318 320 325 329 329 324 324 323 319 317 317 318 316 312 315 313 316 318 320 320 322 325 325 330 330 334 335 335 335 332 331 332
287 295 297 299 299 300 304 299 313 313 310 314 319 322 328 326 325 324 323 319 315 315 314 314 311 310 312 313 316 318 318 321 324 326 330 331 335 336 337 338 339 339 334 333
294 292 295 302 302 304 308 309 310 309 312 319 325 327 325 324 322 320 317 315 313 314 312 309 308 311 311 315 317 317 319 322 325 329 333 336 336 337 341 341 342 341 340 339
290 296 300 301 308 319 321 317 312 312 319 323 323 322 321 319 318 316 313 315 316 312 307 305 310 308 313 317 319 322 325 328 329 334 338 337 339 341 344 344 344 345 345 346
290 298 303 308 310 310 309 310 310 314 315 316 317 316 317 317 316 313 312 315 314 306 300 303 306 311 319 324 326 330 333 333 333 337 337 338 343 345 348 348 349 350 349 349
295 296 299 298 300 303 307 312 315 316 317 316 316 318 320 320 319 318 316 315 310 300 297 308 310 317 325 327 330 334 335 336 336 338 337 339 344 348 351 351 353 356 355 353
291 293 298 306 314 316 317 317 315 314 315 315 316 318 320 321 320 320 318 315 304 295 312 310 315 321 323 326 327 333 336 339 338 337 337 341 346 350 353 354 356 360 2 358
296 300 303 309 314 316 314 313 311 312 314 314 316 319 323 324 321 320 321 313 297 309 310 313 316 321 323 323 323 328 334 335 338 335 336 338 344 350 353 355 357 360 5 3
301 303 308 310 312 311 309 310 312 314 315 314 318 318 321 323 323 324 321 308 301 310 311 311 316 323 324 321 321 325 331 332 334 334 335 338 341 346 350 353 357 359 2 6
304 307 310 311 310 310 310 310 312 313 315 315 315 315 316 320 322 323 318 305 307 305 310 310 315 320 322 320 319 324 330 332 332 331 334 337 341 343 345 348 354 357 1 3
307 309 311 311 310 311 313 315 314 312 311 311 310 312 311 316 319 319 315 308 307 306 310 308 313 318 319 320 320 321 325 329 330 327 327 331 335 340 341 342 346 352 356 358
308 309 308 308 309 313 317 319 317 319 320 317 314 311 309 313 313 316 312 305 305 306 312 308 311 314 316 319 323 325 327 328 328 326 325 326 327 330 336 338 336 340 346 350
306 306 306 308 311 316 317 318 318 318 313 314 316 311 308 308 306 309 303 300 306 308 314 310 303 308 312 318 323 327 329 331 330 328 325 323 323 324 326 330 331 329 331 337
306 308 312 313 316 317 318 318 319 317 312 312 313 311 307 299 303 302 299 302 304 310 314 312 304 305 308 314 319 321 325 329 330 330 330 328 327 327 326 325 325 326 321 321
310 312 314 313 315 319 319 320 320 322 316 315 314 308 311 306 299 299 296 296 300 309 315 315 312 307 306 308 311 315 322 325 328 330 330 329 328 327 326 326 325 322 321 313
Height
3147 3146 3144 3139 3137 3137 3135 3133 3132 3124 3122 3119 3117 3112 3110 3107 3104 3100 3094 3086 3080 3075 3069 3063 3057 3050 3044 3039 3032 3025 3017 3009 3000 2992 2985 2980 2974 2969 2964 2961 2959 2955 2951 2948
3140 3140 3139 3132 3129 3129 3129 3128 3122 3118 3114 3116 3111 3106 3103 3100 3094 3088 3083 3077 3072 3065 3059 3052 3047 3040 3036 3029 3022 3015 3006 2997 2988 2982 2978 2973 2968 2964 2959 2955 2951 2947 2943 2938
3138 3136 3135 3129 3126 3125 3124 3123 3119 3114 3112 3108 3104 3100 3095 3090 3085 3081 3076 3070 3063 3057 3050 3043 3038 3033 3026 3020 3012 3004 2995 2988 2981 2976 2969 2966 2961 2956 2951 2947 2942 2938 2934 2930
3135 3134 3135 3127 3122 3121 3118 3117 3115 3110 3107 3103 3097 3091 3089 3086 3080 3074 3067 3061 3056 3048 3042 3037 3030 3025 3018 3010 3002 2995 2988 2979 2974 2969 2963 2959 2953 2948 2943 2939 2935 2930 2926 2921
3133 3129 3125 3120 3118 3116 3111 3108 3108 3104 3100 3096 3091 3084 3083 3077 3071 3064 3057 3051 3042 3037 3032 3029 3022 3015 3008 3000 2993 2987 2981 2973 2968 2963 2956 2951 2947 2942 2937 2932 2927 2922 2917 2912
3129 3127 3120 3113 3113 3111 3107 3100 3099 3096 3093 3089 3083 3075 3071 3065 3060 3054 3047 3041 3035 3033 3027 3021 3014 3005 2997 2992 2983 2979 2974 2967 2960 2955 2949 2944 2940 2935 2930 2925 2919 2914 2909 2903
3124 3121 3112 3106 3107 3106 3104 3101 3092 3089 3084 3079 3075 3071 3063 3058 3050 3044 3038 3033 3030 3025 3017 3010 3004 2996 2989 2982 2976 2971 2966 2960 2955 2950 2944 2938 2933 2928 2923 2917 2912 2906 2901 2896
3117 3115 3109 3105 3103 3102 3098 3088 3084 3080 3075 3071 3066 3060 3055 3050 3044 3038 3034 3029 3023 3016 3011 3002 2994 2988 2981 2976 2969 2964 2958 2954 2950 2944 2938 2933 2928 2922 2915 2909 2904 2898 2892 2888
3112 3105 3104 3100 3096 3095 3089 3081 3076 3072 3067 3061 3055 3051 3046 3042 3037 3033 3028 3023 3017 3010 3004 2997 2987 2981 2975 2969 2963 2958 2954 2949 2944 2939 2933 2927 2921 2914 2908 2902 2896 2890 2884 2879
3103 3099 3094 3092 3090 3085 3080 3074 3069 3065 3060 3053 3048 3044 3039 3037 3032 3026 3021 3014 3009 3002 2995 2989 2981 2974 2967 2961 2957 2953 2949 2944 2939 2933 2928 2922 2915 2908 2902 2896 2890 2883 2876 2871
3091 3089 3084 3084 3080 3075 3072 3068 3064 3058 3053 3048 3042 3040 3035 3030 3024 3019 3013 3006 3001 2994 2986 2981 2974 2967 2961 2956 2952 2948 2943 2938 2933 2928 2922 2915 2909 2903 2897 2891 2884 2876 2869 2864
3082 3083 3076 3072 3070 3068 3064 3059 3054 3051 3046 3042 3037 3032 3027 3023 3018 3010 3004 2998 2991 2985 2978 2972 2966 2960 2955 2950 2946 2942 2938 2934 2928 2923 2917 2910 2905 2900 2894 2887 2879 2872 2866 2859
3078 3075 3069 3067 3063 3059 3055 3051 3048 3044 3039 3035 3031 3025 3021 3014 3008 3001 2994 2988 2982 2976 2969 2963 2958 2954 2949 2945 2942 2937 2933 2928 2923 2917 2912 2906 2901 2895 2890 2884 2876 2867 2861 2855
3070 3066 3064 3060 3056 3052 3049 3044 3042 3039 3035 3029 3023 3019 3012 3006 3000 2993 2986 2980 2973 2967 2960 2956 2951 2946 2943 2940 2937 2932 2928 2923 2918 2913 2907 2902 2897 2891 2885 2878 2871 2866 2859 2852
3062 3060 3057 3053 3049 3046 3043 3040 3036 3031 3026 3022 3016 3007 3001 2995 2990 2985 2978 2971 2964 2958 2953 2948 2944 2941 2938 2935 2931 2927 2923 2918 2914 2909 2904 2899 2894 2888 2882 2874 2868 2861 2856 2850
3055 3053 3050 3046 3043 3039 3036 3031 3028 3024 3018 3012 3006 3000 2994 2986 2980 2973 2966 2960 2954 2949 2945 2941 2938 2936 2934 2930 2926 2922 2918 2914 2910 2906 2901 2897 2891 2886 2879 2872 2866 2859 2853 2848
3049 3046 3042 3039 3036 3032 3029 3024 3019 3013 3007 3003 2997 2990 2984 2976 2969 2963 2956 2951 2945 2941 2938 2936 2935 2932 2929 2926 2922 2919 2915 2911 2907 2903 2899 2894 2889 2883 2877 2870 2864 2858 2852 2847
3044 3041 3038 3034 3030 3025 3021 3016 3010 3004 2997 2992 2986 2979 2972 2965 2958 2953 2948 2943 2938 2935 2933 2932 2931 2928 2925 2922 2919 2916 2912 2908 2904 2900 2896 2892 2887 2882 2876 2869 2864 2858 2852 2846
3038 3035 3032 3028 3023 3017 3011 3005 2999 2994 2988 2982 2976 2971 2964 2958 2951 2946 2941 2936 2933 2931 2930 2928 2927 2924 2922 2919 2916 2913 2909 2906 2902 2898 2895 2890 2886 2881 2875 2869 2864 2858 2852 2847
3032 3028 3023 3018 3013 3008 3001 2996 2990 2984 2979 2972 2967 2962 2956 2950 2944 2940 2935 2932 2930 2928 2927 2925 2923 2921 2918 2916 2913 2910 2907 2903 2900 2896 2893 2889 2885 2880 2874 2869 2863 2859 2854 2848
3024 3019 3013 3008 3003 2999 2994 2987 2980 2975 2969 2964 2958 2953 2949 2944 2939 2934 2931 2929 2927 2926 2924 2922 2920 2917 2915 2912 2910 2907 2904 2901 2897 2894 2891 2887 2883 2879 2874 2869 2864 2859 2855 2851
3015 3010 3004 2998 2993 2989 2985 2979 2972 2966 2960 2955 2951 2946 2942 2938 2934 2930 2927 2926 2924 2923 2921 2919 2917 2914 2912 2909 2907 2905 2902 2898 2895 2892 2889 2885 2881 2877 2873 2869 2864 2860 2855 2851
3005 2999 2994 2990 2985 2980 2975 2969 2963 2957 2951 2947 2942 2939 2935 2932 2929 2926 2924 2922 2921 2919 2917 2915 2913 2911 2909 2906 2904 2901 2899 2896 2892 2889 2886 2883 2879 2876 2872 2868 2864 2860 2856 2852
2996 2991 2986 2982 2977 2972 2966 2962 2955 2950 2944 2940 2936 2932 2929 2926 2924 2921 2920 2919 2918 2916 2914 2912 2910 2908 2906 2903 2900 2898 2896 2893 2890 2887 2884 2880 2877 2873 2870 2866 2863 2860 2856 2853
2987 2983 2978 2974 2969 2964 2958 2952 2947 2942 2938 2934 2929 2926 2923 2920 2919 2917 2917 2916 2914 2912 2910 2908 2906 2904 2902 2900 2897 2895 2893 2890 2887 2884 2880 2877 2874 2870 2867 2864 2860 2858 2855 2852
2980 2976 2971 2966 2961 2956 2950 2945 2940 2935 2930 2927 2924 2920 2917 2915 2914 2914 2913 2912 2910 2908 2906 2904 2902 2900 2898 2896 2894 2892 2890 2887 2884 2881 2877 2874 2870 2867 2863 2860 2857 2854 2852 2850
2973 2968 2964 2959 2955 2949 2944 2938 2932 2929 2925 2921 2918 2915 2913 2911 2910 2910 2909 2908 2906 2904 2902 2900 2898 2896 2894 2893 2891 2889 2886 2884 2881 2877 2874 2871 2867 2863 2860 2856 2853 2850 2848 2846